Weather in Chernaya

Russia / Nenets Autonomous Okrug     68°27′10″N   56°42′21″E
temp.,
°C
wind,
m/s
gust,
m/s
humid.,
%
clouds,
%
prec.,
mm/h
press.,
hPa
HPBL,
m
27 february, sat
sat2700:00−22s611924 0.0 1013176
03:00−23s59935 0.0 1014147
06:00−23s6119463 0.0 1013173
09:00−22s7129167 0.0 1013257
12:00−20s7128999 0.0 1013321
15:00−20s7119099 0.0 1013318
18:00−19s61290100 0.0 1011321
21:00−18ssw61190100 0.0 1011307
28 february, sun
sun2800:00−18s51092100 0.0 1010259
03:00−18ssw61094100 0.1 1010333
06:00−17ssw5995100 0.5 1009334
09:00−16ssw5893100 0.8 1009364
12:00−16ssw479285 0.1 1010352
15:00−19ssw459579 0.1 101068
18:00−20ssw459683 0.0 101049
21:00−20ssw559765 0.0 101066
1 march, mon
mon100:00−19s589684 0.0 100899
03:00−18s6109583 0.0 1007168
06:00−15s8139298 0.0 1004257
09:00−13s101691100 0.1 1001349
12:00−11ssw111791100 0.2 997513
15:00−11ssw111791100 0.6 994550
18:00−10ssw101692100 0.7 991546
21:00−8ssw91493100 1.8 989520
2 march, tue
tue200:00−7ssw81390100 0.8 988421
03:00−7ssw71193100 0.9 988225
06:00−6ssw6993100 0.1 988173
09:00−8s699396 0.1 989196
12:00−7s6993100 0.1 990278
15:00−7s6993100 0.4 990282
18:00−8s5895100 0.5 990257
21:00−8s5795100 1.1 990211
3 march, wed
wed300:00−9s4695100 0.4 990139
03:00−11s4695100 0.7 990125
06:00−13s459499 0.1 99079
09:00−12s459499 0.1 991101
12:00−9s469492 0.2 991244
15:00−10s469496 0.5 992204
18:00−12s4594100 0.2 99299
21:00−12s349599 0.3 99248